Weather History for KRZN - April, 2014

Change the Weather History Date:

Tuesday, April 1, 2014

  Actual Average Record
Temperature  
Mean Temperature 27 °F -  
Max Temperature 34 °F - - ()
Min Temperature 18 °F - - ()
Degree Days  
Heating Degree Days 38    
Moisture  
Dew Point 20 °F    
Average Humidity 77    
Maximum Humidity 98    
Minimum Humidity 56    
Precipitation  
Precipitation 0.01 in - - ()
Sea Level Pressure  
Sea Level Pressure 29.77 in    
Wind  
Wind Speed 11 mph (West)    
Max Wind Speed 22 mph    
Max Gust Speed 33 mph    
Visibility 7 miles    
Events Snow    
T = Trace of Precipitation, MM = Missing Value Source: NWS Daily Summary

Daily Weather History Graph

Daily Weather History Graph

Search for Another Location

Airport or City:

Trip Planner

Search our weather history database for the weather conditions in past years. The results will help you decide how hot, cold, wet, or windy it might be!

Date:

Astronomy

Apr. 01, 2014 Rise Set
Actual Time 6:49 AM CDT 7:37 PM CDT
Civil Twilight 6:19 AM CDT 8:08 PM CDT
Nautical Twilight 5:43 AM CDT 8:44 PM CDT
Astronomical Twilight 5:06 AM CDT 9:21 PM CDT
Moon 7:46 AM CDT (4/1) 10:08 PM CDT (4/1)
Length of Visible Light 13h 48m
Length of Day
12h 48m
Waxing Crescent, 5% of the Moon is Illuminated
Apr 1
Waxing Crescent
Apr 7
First Quarter
Apr 15
Full
Apr 22
Last Quarter
Apr 29
New

Hourly Weather History & Observations

Time (CDT) Temp. Windchill Dew Point Humidity Pressure Visibility Wind Dir Wind Speed Gust Speed Precip Events Conditions
12:10 AM 36.5 °F 32.7 °F 36.0 °F 98% 29.41 in 3.0 mi SSW 4.6 mph - N/A   Overcast
12:30 AM 36.7 °F 28.9 °F 35.4 °F 95% 29.41 in 10.0 mi SW 11.5 mph 20.7 mph N/A   Overcast
12:50 AM 35.1 °F 25.9 °F 32.0 °F 89% 29.42 in 10.0 mi SSW 13.8 mph 19.6 mph N/A   Overcast
1:10 AM 34.0 °F 25.0 °F 31.3 °F 90% 29.43 in 10.0 mi SSW 12.7 mph 21.9 mph N/A   Overcast
1:30 AM 33.8 °F 25.8 °F 30.7 °F 89% 29.43 in 10.0 mi SW 10.4 mph - N/A   Overcast
1:50 AM 32.5 °F 24.2 °F 30.2 °F 91% 29.44 in 5.0 mi SW 10.4 mph - N/A   Overcast
2:10 AM 32.0 °F 24.2 °F 30.6 °F 94% 29.45 in 3.0 mi SW 9.2 mph - N/A   Overcast
2:30 AM 31.8 °F 27.3 °F 30.6 °F 95% 29.45 in 3.0 mi SSW 4.6 mph - N/A   Overcast
2:50 AM 31.1 °F 21.4 °F 29.8 °F 95% 29.45 in 5.0 mi SSW 12.7 mph 16.1 mph N/A   Overcast
3:10 AM 31.1 °F 23.1 °F 29.7 °F 94% 29.45 in 5.0 mi SSW 9.2 mph - N/A   Overcast
3:30 AM 30.9 °F 23.5 °F 29.3 °F 94% 29.46 in 4.0 mi SSW 8.1 mph - N/A   Overcast
3:50 AM 30.9 °F 26.2 °F 29.8 °F 96% 29.46 in 2.5 mi SSW 4.6 mph - N/A   Overcast
4:10 AM 31.1 °F 26.4 °F 30.2 °F 96% 29.46 in 3.0 mi SW 4.6 mph - N/A   Overcast
4:30 AM 30.9 °F 27.5 °F 30.2 °F 97% 29.47 in 3.0 mi SW 3.5 mph - N/A   Overcast
4:50 AM 31.1 °F 25.4 °F 30.4 °F 97% 29.48 in 3.0 mi SW 5.8 mph - N/A   Overcast
5:10 AM 30.7 °F 23.3 °F 30.0 °F 97% 29.48 in 3.0 mi WSW 8.1 mph - N/A   Overcast
5:30 AM 30.2 °F 23.4 °F 29.3 °F 96% 29.49 in 4.0 mi WSW 6.9 mph - N/A Snow Light Snow
5:50 AM 25.5 °F 10.9 °F 23.5 °F 92% 29.52 in 2.0 mi NW 21.9 mph 26.5 mph N/A Snow Light Snow
6:10 AM 23.4 °F 9.6 °F 19.9 °F 87% 29.55 in 10.0 mi NNW 17.3 mph 27.6 mph N/A   Overcast
6:30 AM 22.3 °F 8.7 °F 18.9 °F 87% 29.57 in 7.0 mi NNW 16.1 mph 24.2 mph N/A   Overcast
6:50 AM 21.2 °F 7.8 °F 18.0 °F 87% 29.60 in 7.0 mi NW 15.0 mph 27.6 mph N/A   Overcast
7:10 AM 20.1 °F 5.9 °F 16.0 °F 84% 29.62 in 7.0 mi NNW 16.1 mph 23.0 mph N/A   Overcast
7:30 AM 20.3 °F 6.6 °F 16.9 °F 87% 29.63 in 5.0 mi NW 15.0 mph 20.7 mph N/A Snow Light Snow
7:50 AM 19.2 °F 3.8 °F 14.9 °F 83% 29.66 in 4.0 mi NW 18.4 mph 25.3 mph N/A Snow Light Snow
8:10 AM 19.0 °F 5.6 °F 15.6 °F 87% 29.67 in 1.5 mi NW 13.8 mph 21.9 mph N/A Snow Light Snow
8:30 AM 18.9 °F 5.3 °F 15.3 °F 86% 29.69 in 1.8 mi NW 13.8 mph 19.6 mph N/A Snow Light Snow
8:50 AM 18.9 °F 4.8 °F 13.6 °F 80% 29.70 in 3.0 mi NW 15.0 mph 25.3 mph N/A Snow Light Snow
9:10 AM 18.5 °F 3.8 °F 14.5 °F 85% 29.71 in 2.0 mi NW 16.1 mph 26.5 mph N/A Snow Light Snow
9:30 AM 18.3 °F 3.1 °F 13.1 °F 80% 29.73 in 2.0 mi NW 17.3 mph 29.9 mph N/A Snow Light Snow
9:50 AM 18.7 °F 4.0 °F 13.8 °F 81% 29.74 in 2.5 mi WNW 16.1 mph 25.3 mph N/A Snow Light Snow
10:10 AM 19.0 °F 3.2 °F 15.1 °F 85% 29.76 in 1.2 mi NW 19.6 mph 26.5 mph N/A Snow Light Snow
10:30 AM 18.7 °F 1.9 °F 12.9 °F 78% 29.78 in 3.0 mi NW 21.9 mph 33.4 mph N/A   Haze
10:50 AM 18.5 °F 4.3 °F 12.6 °F 78% 29.79 in 3.0 mi NW 15.0 mph 26.5 mph N/A Snow Light Snow
11:10 AM 19.4 °F 5.0 °F 13.3 °F 77% 29.80 in 3.0 mi NW 16.1 mph - N/A Snow Light Snow
11:30 AM 19.4 °F 6.6 °F 14.0 °F 80% 29.81 in 1.8 mi NW 12.7 mph - N/A Snow Light Snow
11:50 AM 19.6 °F 7.4 °F 14.9 °F 82% 29.82 in 1.5 mi WNW 11.5 mph 25.3 mph N/A Snow Light Snow
12:10 PM 20.5 °F 7.4 °F 15.1 °F 80% 29.83 in 2.5 mi West 13.8 mph 19.6 mph N/A Snow Light Snow
12:30 PM 22.8 °F 8.5 °F 14.4 °F 70% 29.85 in 10.0 mi WNW 18.4 mph 26.5 mph N/A   Overcast
12:50 PM 24.3 °F 9.6 °F 15.4 °F 69% 29.86 in 10.0 mi WNW 20.7 mph - N/A   Overcast
1:10 PM 25.3 °F 13.1 °F 15.8 °F 67% 29.86 in 10.0 mi WNW 15.0 mph - N/A   Mostly Cloudy
1:30 PM 25.5 °F 11.6 °F 15.4 °F 66% 29.87 in 10.0 mi WNW 19.6 mph 25.3 mph N/A   Mostly Cloudy
1:50 PM 26.4 °F 14.5 °F 15.4 °F 63% 29.88 in 10.0 mi WNW 15.0 mph 26.5 mph N/A   Mostly Cloudy
2:10 PM 27.1 °F 14.9 °F 15.6 °F 62% 29.88 in 10.0 mi West 16.1 mph 24.2 mph N/A   Mostly Cloudy
2:30 PM 27.5 °F 15.9 °F 16.2 °F 62% 29.89 in 10.0 mi WNW 15.0 mph 23.0 mph N/A   Scattered Clouds
2:50 PM 28.2 °F 17.7 °F 16.2 °F 61% 29.89 in 10.0 mi WNW 12.7 mph 19.6 mph N/A   Clear
3:10 PM 28.8 °F 16.2 °F 16.9 °F 61% 29.89 in 10.0 mi WNW 18.4 mph 23.0 mph N/A   Clear
3:30 PM 29.5 °F 18.0 °F 16.9 °F 59% 29.90 in 10.0 mi West 16.1 mph 25.3 mph N/A   Clear
3:50 PM 30.0 °F 18.3 °F 18.0 °F 61% 29.90 in 10.0 mi WNW 17.3 mph - N/A   Clear
4:10 PM 30.7 °F 18.8 °F 17.6 °F 58% 29.91 in 10.0 mi WNW 18.4 mph 23.0 mph N/A   Clear
4:30 PM 31.3 °F 20.7 °F 17.6 °F 57% 29.91 in 10.0 mi WNW 15.0 mph 21.9 mph 0.01 in   Clear
4:50 PM 32.0 °F 21.2 °F 18.1 °F 57% 29.92 in 10.0 mi West 16.1 mph 21.9 mph 0.01 in   Clear
5:10 PM 31.8 °F 21.4 °F 17.8 °F 56% 29.93 in 10.0 mi WNW 15.0 mph 23.0 mph N/A   Clear
5:30 PM 32.0 °F 22.1 °F 18.1 °F 57% 29.93 in 10.0 mi West 13.8 mph 21.9 mph N/A   Clear
5:50 PM 32.4 °F 22.1 °F 18.5 °F 57% 29.95 in 10.0 mi WNW 15.0 mph 19.6 mph N/A   Clear
6:10 PM 32.2 °F 22.3 °F 19.0 °F 58% 29.96 in 10.0 mi WNW 13.8 mph - N/A   Clear
6:30 PM 32.2 °F 23.2 °F 19.2 °F 59% 29.96 in 10.0 mi WNW 11.5 mph - N/A   Clear
6:50 PM 32.2 °F 24.4 °F 19.2 °F 59% 29.98 in 10.0 mi WNW 9.2 mph - N/A   Clear
7:10 PM 32.0 °F 24.2 °F 19.4 °F 60% 29.98 in 10.0 mi WNW 9.2 mph - N/A   Clear
7:30 PM 31.6 °F 26.0 °F 19.0 °F 60% 30.00 in 10.0 mi West 5.8 mph - N/A   Clear
7:50 PM 29.8 °F 23.0 °F 20.1 °F 67% 30.01 in 10.0 mi WSW 6.9 mph - N/A   Clear
8:10 PM 29.1 °F 22.1 °F 19.9 °F 69% 30.02 in 10.0 mi WSW 6.9 mph - N/A   Clear
8:30 PM 28.4 °F 21.2 °F 19.4 °F 69% 30.03 in 10.0 mi WSW 6.9 mph - N/A   Clear
8:50 PM 28.0 °F 20.8 °F 19.4 °F 70% 30.04 in 10.0 mi WSW 6.9 mph - N/A   Clear
9:10 PM 27.9 °F 20.6 °F 19.2 °F 70% 30.05 in 10.0 mi WSW 6.9 mph - N/A   Clear
9:30 PM 27.1 °F 20.7 °F 19.0 °F 72% 30.05 in 10.0 mi West 5.8 mph - N/A   Clear
9:50 PM 27.3 °F 20.9 °F 19.0 °F 71% 30.06 in 10.0 mi West 5.8 mph - N/A   Clear
10:10 PM 26.6 °F 21.2 °F 18.7 °F 72% 30.07 in 10.0 mi West 4.6 mph - N/A   Clear
10:30 PM 25.2 °F 20.9 °F 18.0 °F 74% 30.07 in 10.0 mi WNW 3.5 mph - N/A   Clear
10:50 PM 24.3 °F - 18.0 °F 77% 30.08 in 10.0 mi Calm Calm - N/A   Clear
11:10 PM 24.3 °F - 18.3 °F 78% 30.09 in 10.0 mi Calm Calm - N/A   Clear
11:30 PM 23.7 °F - 18.1 °F 79% 30.09 in 10.0 mi Calm Calm - N/A   Clear
11:50 PM 22.6 °F - 18.1 °F 83% 30.10 in 10.0 mi Calm Calm - N/A   Clear